Location: Fluertsh�userhof
(48.7537°N, 10.3850°E)
Time: 08:29:59
(UTC+00:00)

Cosmos 2279 Rocket - Pass Details

Date: 18 September 2020
Orbit: 964 x 979 km, 82.9° (Epoch: 25 October)

Event Time Altitude Azimuth Distance (km) Brightness Sun altitude
Exits shadow 20:20:49 72° 96° (E) 1,030 3.8 -27.7°
Maximum altitude 20:20:49 72° 95° (E) 1,030 3.8 -27.7°
Drops below altitude 10° 20:27:05 10° 13° (NNE) 2,743 6.7 -28.4°
Sets 20:29:36 0° 11° (NNE) 3,695 7.4 -28.8°
